Weather History for KMCC - May, 2013

Change the Weather History Date:

Monday, May 20, 2013

  Actual Average (KMHR) Record (KMHR)
Temperature  
Mean Temperature 73 °F -  
Max Temperature 89 °F 80 °F 98 °F (2001)
Min Temperature 57 °F 49 °F 46 °F (2002)
Cooling Degree Days 8    
Growing Degree Days 23 (Base 50)    
Moisture  
Dew Point 37 °F    
Average Humidity 31    
Maximum Humidity 63    
Minimum Humidity 7    
Precipitation  
Precipitation 0.00 in - - ()
Sea Level Pressure  
Sea Level Pressure 29.95 in    
Wind  
Wind Speed 7 mph (WNW)    
Max Wind Speed 15 mph    
Max Gust Speed 20 mph    
Visibility 10 miles    
Events      
Averages and records for this station are not official NWS values.
T = Trace of Precipitation, MM = Missing Value Source: NWS Daily Summary

Daily Weather History Graph

Daily Weather History Graph

Search for Another Location

Airport or City:

Trip Planner

Search our weather history database for the weather conditions in past years. The results will help you decide how hot, cold, wet, or windy it might be!

Date:

Astronomy

May. 20, 2013 Rise Set
Actual Time 5:49 AM PDT 8:15 PM PDT
Civil Twilight 5:19 AM PDT 8:45 PM PDT
Nautical Twilight 4:41 AM PDT 9:23 PM PDT
Astronomical Twilight 4:00 AM PDT 10:05 PM PDT
Moon 3:31 PM PDT (5/20) 2:43 AM PDT (5/20)
Length of Visible Light 15h 26m
Length of Day
14h 26m
Waxing Gibbous, 76% of the Moon is Illuminated
May 20
Waxing Gibbous
May 24
Full
May 31
Last Quarter
Jun 8
New
Jun 16
First Quarter

Hourly Weather History & Observations

Time (PDT) Temp. Dew Point Humidity Pressure Visibility Wind Dir Wind Speed Gust Speed Precip Events Conditions
12:05 AM 64.4 °F 44.6 °F 49% 29.97 in 10.0 mi NNW 4.6 mph - N/A   Clear
12:25 AM 62.6 °F 44.6 °F 52% 29.97 in 10.0 mi NNW 5.8 mph - N/A   Clear
12:45 AM 60.8 °F 44.6 °F 55% 29.97 in 10.0 mi NNW 5.8 mph - N/A   Clear
1:05 AM 60.8 °F 44.6 °F 55% 29.97 in 10.0 mi Calm Calm - N/A   Clear
1:25 AM 62.6 °F 44.6 °F 52% 29.97 in 10.0 mi WNW 3.5 mph - N/A   Clear
1:45 AM 62.6 °F 44.6 °F 52% 29.97 in 10.0 mi WNW 6.9 mph - N/A   Clear
2:05 AM 59.0 °F 44.6 °F 59% 29.97 in 10.0 mi NW 4.6 mph - N/A   Clear
2:25 AM 60.8 °F 46.4 °F 59% 29.97 in 10.0 mi NW 6.9 mph - N/A   Clear
2:45 AM 60.8 °F 44.6 °F 55% 29.97 in 10.0 mi NW 6.9 mph - N/A   Clear
3:05 AM 62.6 °F 44.6 °F 52% 29.98 in 10.0 mi NW 4.6 mph - N/A   Clear
3:25 AM 60.8 °F 44.6 °F 55% 29.98 in 10.0 mi WNW 6.9 mph - N/A   Clear
3:45 AM 60.8 °F 44.6 °F 55% 29.98 in 10.0 mi WNW 8.1 mph - N/A   Clear
4:05 AM 59.0 °F 44.6 °F 59% 29.98 in 10.0 mi NNW 10.4 mph - N/A   Clear
4:25 AM 62.6 °F 42.8 °F 48% 29.98 in 10.0 mi WNW 6.9 mph - N/A   Clear
4:45 AM 59.0 °F 41.0 °F 51% 29.97 in 10.0 mi NNW 8.1 mph - N/A   Clear
5:05 AM 59.0 °F 44.6 °F 59% 29.98 in 10.0 mi West 3.5 mph - N/A   Clear
5:25 AM 57.2 °F 44.6 °F 63% 29.98 in 10.0 mi WNW 5.8 mph - N/A   Clear
5:45 AM 57.2 °F 44.6 °F 63% 29.98 in 10.0 mi NW 6.9 mph - N/A   Clear
6:05 AM 59.0 °F 44.6 °F 59% 29.98 in 10.0 mi NW 8.1 mph - N/A   Clear
6:25 AM 59.0 °F 44.6 °F 59% 29.99 in 9.0 mi NNW 8.1 mph - N/A   Clear
6:45 AM 60.8 °F 44.6 °F 55% 29.99 in 10.0 mi NNW 5.8 mph - N/A   Clear
7:05 AM 62.6 °F 44.6 °F 52% 29.99 in 10.0 mi North 6.9 mph - N/A   Clear
7:25 AM 64.4 °F 42.8 °F 45% 29.99 in 10.0 mi NW 9.2 mph - N/A   Clear
7:45 AM 66.2 °F 41.0 °F 40% 30.00 in 10.0 mi NW 8.1 mph - N/A   Clear
8:05 AM 68.0 °F 39.2 °F 35% 30.00 in 10.0 mi NW 9.2 mph - N/A   Clear
8:25 AM 69.8 °F 39.2 °F 33% 30.00 in 10.0 mi NNW 12.7 mph 16.1 mph N/A   Clear
8:45 AM 71.6 °F 37.4 °F 29% 30.00 in 10.0 mi NNW 15.0 mph - N/A   Clear
9:05 AM 73.4 °F 37.4 °F 27% 30.00 in 10.0 mi NNW 13.8 mph 18.4 mph N/A   Clear
9:25 AM 75.2 °F 35.6 °F 24% 30.00 in 10.0 mi NNW 12.7 mph - N/A   Clear
9:45 AM 77.0 °F 35.6 °F 22% 30.00 in 10.0 mi NNW 13.8 mph - N/A   Clear
10:05 AM 77.0 °F 33.8 °F 21% 30.00 in 10.0 mi North 12.7 mph 18.4 mph N/A   Clear
10:25 AM 77.0 °F 41.0 °F 28% 29.99 in 10.0 mi NW 13.8 mph 19.6 mph N/A   Clear
10:45 AM 78.8 °F 41.0 °F 26% 30.00 in 10.0 mi WNW 12.7 mph 17.3 mph N/A   Clear
11:05 AM 80.6 °F 33.8 °F 18% 29.99 in 10.0 mi NNW 13.8 mph 19.6 mph N/A   Clear
11:25 AM 82.4 °F 33.8 °F 17% 29.99 in 10.0 mi North 11.5 mph 17.3 mph N/A   Clear
11:45 AM 82.4 °F 32.0 °F 16% 29.99 in 10.0 mi North 13.8 mph 18.4 mph N/A   Clear
12:05 PM 82.4 °F 32.0 °F 16% 29.98 in 10.0 mi North 13.8 mph - N/A   Clear
12:25 PM 82.4 °F 30.2 °F 15% 29.98 in 10.0 mi North 9.2 mph 16.1 mph N/A   Clear
12:45 PM 84.2 °F 28.4 °F 13% 29.97 in 10.0 mi NNW 5.8 mph - N/A   Clear
1:05 PM 84.2 °F 28.4 °F 13% 29.97 in 10.0 mi NW 3.5 mph - N/A   Clear
1:25 PM 86.0 °F 33.8 °F 15% 29.97 in 9.0 mi West 15.0 mph - N/A   Clear
1:45 PM 86.0 °F 32.0 °F 14% 29.97 in 10.0 mi NW 10.4 mph - N/A   Clear
2:05 PM 86.0 °F 32.0 °F 14% 29.96 in 10.0 mi West 9.2 mph - N/A   Clear
2:25 PM 86.0 °F 32.0 °F 14% 29.95 in 10.0 mi NW 10.4 mph 18.4 mph N/A   Clear
2:45 PM 86.0 °F 32.0 °F 14% 29.95 in 10.0 mi NW 6.9 mph - N/A   Clear
3:05 PM 86.0 °F 30.2 °F 13% 29.95 in 10.0 mi SW 3.5 mph - N/A   Clear
3:25 PM 86.0 °F 32.0 °F 14% 29.94 in 10.0 mi NW 5.8 mph - N/A   Clear
3:45 PM 86.0 °F 32.0 °F 14% 29.93 in 10.0 mi West 6.9 mph - N/A   Clear
4:05 PM 87.8 °F 30.2 °F 13% 29.92 in 10.0 mi West 8.1 mph - N/A   Clear
4:25 PM 89.6 °F 24.8 °F 10% 29.91 in 10.0 mi WSW 10.4 mph - N/A   Clear
4:45 PM 87.8 °F 19.4 °F 8% 29.90 in 9.0 mi Calm Calm - N/A   Clear
5:05 PM 89.6 °F 17.6 °F 7% 29.89 in 10.0 mi West 5.8 mph - N/A   Clear
5:25 PM 89.6 °F 15.8 °F 7% 29.89 in 10.0 mi NW 4.6 mph - N/A   Clear
5:45 PM 89.6 °F 17.6 °F 7% 29.89 in 10.0 mi WNW 10.4 mph - N/A   Clear
6:05 PM 89.6 °F 19.4 °F 8% 29.89 in 10.0 mi WSW 10.4 mph - N/A   Clear
6:25 PM 89.6 °F 23.0 °F 9% 29.88 in 10.0 mi SW 9.2 mph - N/A   Clear
6:45 PM 86.0 °F 26.6 °F 12% 29.88 in 10.0 mi SW 9.2 mph - N/A   Clear
7:05 PM 86.0 °F 28.4 °F 12% 29.88 in 10.0 mi SW 6.9 mph - N/A   Clear
7:25 PM 84.2 °F 35.6 °F 18% 29.88 in 10.0 mi SSW 13.8 mph 19.6 mph N/A   Clear
7:45 PM 84.2 °F 37.4 °F 19% 29.88 in 10.0 mi SSW 10.4 mph - N/A   Clear
8:05 PM 80.6 °F 39.2 °F 23% 29.88 in 10.0 mi SW 9.2 mph - N/A   Clear
8:25 PM 80.6 °F 41.0 °F 24% 29.88 in 10.0 mi SSW 8.1 mph - N/A   Clear
8:45 PM 78.8 °F 39.2 °F 24% 29.88 in 10.0 mi SSW 11.5 mph - N/A   Clear
9:05 PM 77.0 °F 39.2 °F 26% 29.89 in 10.0 mi SSW 8.1 mph - N/A   Clear
9:25 PM 75.2 °F 37.4 °F 25% 29.89 in 10.0 mi SSW 9.2 mph - N/A   Clear
9:45 PM 73.4 °F 37.4 °F 27% 29.89 in 10.0 mi South 6.9 mph - N/A   Clear
10:05 PM 71.6 °F 39.2 °F 31% 29.89 in 10.0 mi South 8.1 mph - N/A   Clear
10:25 PM 71.6 °F 41.0 °F 33% 29.89 in 10.0 mi South 8.1 mph - N/A   Clear
10:45 PM 71.6 °F 41.0 °F 33% 29.89 in 10.0 mi South 6.9 mph - N/A   Clear
11:05 PM 68.0 °F 42.8 °F 40% 29.90 in 10.0 mi South 8.1 mph - N/A   Clear
11:25 PM 68.0 °F 42.8 °F 40% 29.89 in 10.0 mi South 6.9 mph - N/A   Clear
11:45 PM 66.2 °F 42.8 °F 43% 29.89 in 10.0 mi SE 8.1 mph - N/A   Clear